Location: Peebles
(55.6412°N, 3.1714°W)
Time: 05:08:04
(UTC+01:00)

deb Agena D - Pass Details

Date: 03 July 2022
Orbit: 797 x 980 km, 99.8° (Epoch: 16 August)

Event Time Altitude Azimuth Distance (km) Brightness Sun altitude
Rises 01:49:28 0° 14° (NNE) 3,356 11.4 -11.1°
Reaches altitude 10° 01:54:01 10° 338° (NNW) 2,456 9.6 -11.0°
Maximum altitude 01:55:05 11° 326° (NNW) 2,424 9.3 -11.0°
Drops below altitude 10° 01:56:09 10° 315° (NW) 2,474 9.1 -10.9°
Sets 02:00:51 0° 279° (W) 3,457 9.4 -10.8°
